This demonstration page uses our WeatherBlox Daily Observations layout. Learn more.

Left ArrowRight Arrow

41.12389, -100.76542

Hourly Observations for July 12, 2022

Temp ( °F °C ) Dew Point ( °F °C ) Humidity (%) Winds ( mph kmh ) Pressure ( in mb ) Visibility ( mi km ) Precip ( " mm )
12:53 am 00:53 Clear 61 16.1 55 12.8 81 81 N 3 6 30.12 1020 10 16 0.00 0.00
1:53 am 01:53 Clear 61 16.1 55 12.8 81 81 Calm 30.11 1020 10 16 0.00 0.00
2:53 am 02:53 Mostly Clear 59 15 54 12.2 83 83 Calm 30.10 1019 10 16 0.00 0.00
3:53 am 03:53 Clear 58 14.4 54 12.2 87 87 Calm 30.09 1019 10 16 0.00 0.00
4:53 am 04:53 Clear 56 13.3 52 11.1 87 87 undefined N/A 30.11 1020 10 16 0.00 0.00
5:53 am 05:53 Clear 56 13.3 52 11.1 87 87 Calm 30.11 1020 10 16 0.00 0.00
6:53 am 06:53 Sunny 56 13.3 51 10.6 84 84 Calm 30.13 1020 10 16 0.00 0.00
7:53 am 07:53 Sunny 63 17.2 57 13.9 81 81 NW 3 6 30.14 1021 10 16 0.00 0.00
8:53 am 08:53 Sunny 69 20.6 57 13.9 66 66 Calm 30.13 1020 10 16 0.00 0.00
9:53 am 09:53 Sunny 76 24.4 58 14.4 54 54 VRB 3 6 30.13 1020 10 16 0.00 0.00
10:53 am 10:53 Sunny 81 27.2 55 12.8 41 41 VRB 7 11 30.10 1019 10 16 0.00 0.00
11:53 am 11:53 Sunny 83 28.3 55 12.8 38 38 SW 7 11 30.09 1019 10 16 0.00 0.00
12:53 pm 12:53 Sunny 86 30 54 12.2 33 33 SSE 5 7 30.07 1018 10 16 0.00 0.00
1:53 pm 13:53 Sunny 87 30.6 53 11.7 31 31 S 6 9 30.05 1018 10 16 0.00 0.00
2:53 pm 14:53 Sunny 89 31.7 56 13.3 33 33 VRB 7 11 30.03 1017 10 16 0.00 0.00
3:53 pm 15:53 Mostly Cloudy 88 31.1 56 13.3 34 34 E 7 11 30.02 1017 10 16 0.00 0.00
4:53 pm 16:53 Partly Cloudy 90 32.2 57 13.9 33 33 E 10 17 30.00 1016 10 16 0.00 0.00
5:53 pm 17:53 Mostly Sunny 89 31.7 58 14.4 35 35 ESE 14 22 29.98 1015 10 16 0.00 0.00
6:53 pm 18:53 Sunny 87 30.6 58 14.4 37 37 E 13 20 29.97 1015 10 16 0.00 0.00
7:53 pm 19:53 Sunny 85 29.4 59 15 42 42 ESE 13 20 29.96 1015 10 16 0.00 0.00
8:53 pm 20:53 Mostly Sunny 79 26.1 60 15.6 52 52 ESE 13 20 29.96 1015 10 16 0.00 0.00
9:53 pm 21:53 Clear 75 23.9 59 15 58 58 ESE 8 13 29.97 1015 10 16 0.00 0.00
10:53 pm 22:53 Clear 74 23.3 58 14.4 57 57 SE 10 17 29.96 1015 10 16 0.00 0.00
11:53 pm 23:53 Partly Cloudy 70 21.1 58 14.4 66 66 E 9 15 29.98 1015 10 16 0.00 0.00

Powered by AerisWeather